Location: Nairn
(57.5833°N, 3.8667°W)
Time: 02:38:12
(UTC+00:00)

Cosmos 1975 Rocket - Pass Details

Date: 07 August 2020
Orbit: 603 x 635 km, 82.5° (Epoch: 25 September)

Event Time Altitude Azimuth Distance (km) Brightness Sun altitude
Rises 00:36:32 0° 346° (NNW) 2,948 8.0 -16.0°
Reaches altitude 10° 00:38:47 10° 345° (NNW) 2,036 6.9 -16.0°
Maximum altitude 00:43:19 78° 260° (W) 656 3.1 -15.9°
Enters shadow 00:45:37 29° 177° (S) 1,180 3.9 -15.9°
